Time,TemperatureF,DewpointF,PressureIn,WindDirection,WindDirectionDegrees,WindSpeedMPH,WindSpeedGustMPH,Humidity,HourlyPrecipIn,Conditions,Clouds,dailyrainin,SoftwareType,DateUTC
2013-10-05 00:02:00,76.3,69.6,29.21,WSW,238,4.0,16.0,80,0.00,,,0.00,meteohub,2013-10-05 05:02:00,
2013-10-05 00:07:00,76.1,69.4,29.22,SSW,209,2.0,13.0,80,0.00,,,0.00,meteohub,2013-10-05 05:07:00,
2013-10-05 00:12:00,75.9,69.3,29.22,SW,215,10.0,13.0,80,0.00,,,0.00,meteohub,2013-10-05 05:12:00,
2013-10-05 00:17:00,75.9,69.6,29.22,South,185,1.0,13.0,81,0.00,,,0.00,meteohub,2013-10-05 05:17:00,
2013-10-05 00:22:00,75.7,69.4,29.21,SSW,202,1.0,10.0,81,0.00,,,0.00,meteohub,2013-10-05 05:22:00,
2013-10-05 00:27:00,75.6,69.6,29.22,South,169,0.0,13.0,82,0.00,,,0.00,meteohub,2013-10-05 05:27:00,
2013-10-05 00:32:00,75.6,69.6,29.22,SW,219,3.0,13.0,82,0.00,,,0.00,meteohub,2013-10-05 05:32:00,
2013-10-05 00:37:00,75.4,69.4,29.22,South,175,1.0,13.0,82,0.00,,,0.00,meteohub,2013-10-05 05:37:00,
2013-10-05 00:42:00,75.4,69.8,29.21,SSW,213,2.0,13.0,83,0.00,,,0.00,meteohub,2013-10-05 05:42:00,
2013-10-05 00:47:00,75.4,69.8,29.21,South,184,9.0,13.0,83,0.00,,,0.00,meteohub,2013-10-05 05:47:00,
2013-10-05 00:52:00,75.4,69.8,29.21,SSE,167,5.0,12.0,83,0.00,,,0.00,meteohub,2013-10-05 05:52:00,
2013-10-05 00:57:00,75.4,69.8,29.22,SSW,195,7.0,12.0,83,0.00,,,0.00,meteohub,2013-10-05 05:57:00,
2013-10-05 01:02:00,75.4,69.8,29.22,SW,226,7.0,11.0,83,0.00,,,0.00,meteohub,2013-10-05 06:02:00,
2013-10-05 01:07:00,75.4,69.8,29.21,SSW,207,5.0,11.0,83,0.00,,,0.00,meteohub,2013-10-05 06:07:00,
2013-10-05 01:12:00,75.2,69.6,29.22,South,180,0.0,12.0,83,0.00,,,0.00,meteohub,2013-10-05 06:12:00,
2013-10-05 01:17:00,75.2,70.0,29.22,South,188,3.0,12.0,84,0.00,,,0.00,meteohub,2013-10-05 06:17:00,
2013-10-05 01:22:00,75.2,70.0,29.22,South,186,0.0,15.0,84,0.00,,,0.00,meteohub,2013-10-05 06:22:00,
2013-10-05 01:27:00,75.0,69.8,29.22,South,186,0.0,15.0,84,0.00,,,0.00,meteohub,2013-10-05 06:27:00,
2013-10-05 01:32:00,75.0,69.8,29.22,South,184,11.0,15.0,84,0.00,,,0.00,meteohub,2013-10-05 06:32:00,
2013-10-05 01:37:00,75.0,69.8,29.22,SSW,202,0.0,15.0,84,0.00,,,0.00,meteohub,2013-10-05 06:37:00,
2013-10-05 01:42:00,75.0,69.8,29.22,South,191,2.0,15.0,84,0.00,,,0.00,meteohub,2013-10-05 06:42:00,
2013-10-05 01:47:00,74.8,70.0,29.22,South,170,2.0,13.0,85,0.00,,,0.00,meteohub,2013-10-05 06:47:00,
2013-10-05 01:52:00,74.8,70.0,29.21,South,178,0.0,13.0,85,0.00,,,0.00,meteohub,2013-10-05 06:52:00,
2013-10-05 01:57:00,74.8,70.0,29.21,South,182,0.0,13.0,85,0.00,,,0.00,meteohub,2013-10-05 06:57:00,
2013-10-05 02:02:00,74.8,70.0,29.21,South,178,5.0,10.0,85,0.00,,,0.00,meteohub,2013-10-05 07:02:00,
2013-10-05 02:07:00,74.7,69.8,29.21,South,189,7.0,11.0,85,0.00,,,0.00,meteohub,2013-10-05 07:07:00,
2013-10-05 02:12:00,74.7,69.8,29.21,South,171,8.0,11.0,85,0.00,,,0.00,meteohub,2013-10-05 07:12:00,
2013-10-05 02:17:00,74.7,69.8,29.21,SSW,211,0.0,11.0,85,0.00,,,0.00,meteohub,2013-10-05 07:17:00,
2013-10-05 02:22:00,74.5,70.0,29.21,South,188,6.0,11.0,86,0.00,,,0.00,meteohub,2013-10-05 07:22:00,
2013-10-05 02:27:00,74.5,70.0,29.21,South,186,0.0,11.0,86,0.00,,,0.00,meteohub,2013-10-05 07:27:00,
2013-10-05 02:32:00,74.3,69.8,29.21,South,180,5.0,14.0,86,0.00,,,0.00,meteohub,2013-10-05 07:32:00,
2013-10-05 02:37:00,74.1,69.6,29.21,South,188,3.0,14.0,86,0.00,,,0.00,meteohub,2013-10-05 07:37:00,
2013-10-05 02:42:00,74.1,69.6,29.20,South,183,0.0,14.0,86,0.00,,,0.00,meteohub,2013-10-05 07:42:00,
2013-10-05 02:47:00,73.9,69.8,29.20,South,189,2.0,6.0,87,0.00,,,0.00,meteohub,2013-10-05 07:47:00,
2013-10-05 02:52:00,73.9,69.8,29.20,South,179,1.0,8.0,87,0.00,,,0.00,meteohub,2013-10-05 07:52:00,
2013-10-05 02:57:00,73.9,69.8,29.20,WSW,240,0.0,11.0,87,0.00,,,0.00,meteohub,2013-10-05 07:57:00,
2013-10-05 03:02:00,73.8,69.6,29.20,South,183,6.0,11.0,87,0.00,,,0.00,meteohub,2013-10-05 08:02:00,
2013-10-05 03:07:00,73.8,69.6,29.19,South,180,9.0,9.0,87,0.00,,,0.00,meteohub,2013-10-05 08:07:00,
2013-10-05 03:12:00,73.8,69.6,29.19,South,182,2.0,12.0,87,0.00,,,0.00,meteohub,2013-10-05 08:12:00,
2013-10-05 03:17:00,73.8,70.0,29.18,South,182,9.0,13.0,88,0.00,,,0.00,meteohub,2013-10-05 08:17:00,
2013-10-05 03:22:00,73.6,69.8,29.18,SSW,208,3.0,13.0,88,0.00,,,0.00,meteohub,2013-10-05 08:22:00,
2013-10-05 03:28:00,73.6,69.8,29.18,SSW,207,0.0,13.0,88,0.00,,,0.00,meteohub,2013-10-05 08:28:00,
2013-10-05 03:33:00,73.6,69.8,29.18,South,187,5.0,12.0,88,0.00,,,0.00,meteohub,2013-10-05 08:33:00,
2013-10-05 03:38:00,73.6,69.8,29.18,South,174,4.0,12.0,88,0.00,,,0.00,meteohub,2013-10-05 08:38:00,
2013-10-05 03:43:00,73.6,69.8,29.18,South,191,2.0,12.0,88,0.00,,,0.00,meteohub,2013-10-05 08:43:00,
2013-10-05 03:48:00,73.6,69.8,29.18,SW,233,2.0,11.0,88,0.00,,,0.00,meteohub,2013-10-05 08:48:00,
2013-10-05 03:53:00,73.6,69.8,29.19,SSE,161,1.0,11.0,88,0.00,,,0.00,meteohub,2013-10-05 08:53:00,
2013-10-05 03:58:00,73.6,69.8,29.18,South,176,4.0,13.0,88,0.00,,,0.00,meteohub,2013-10-05 08:58:00,
2013-10-05 04:03:00,73.6,69.8,29.18,SW,221,0.0,13.0,88,0.00,,,0.00,meteohub,2013-10-05 09:03:00,
2013-10-05 04:08:00,73.6,69.8,29.18,South,188,2.0,14.0,88,0.00,,,0.00,meteohub,2013-10-05 09:08:00,
2013-10-05 04:13:00,73.6,69.8,29.18,South,189,0.0,15.0,88,0.00,,,0.00,meteohub,2013-10-05 09:13:00,
2013-10-05 04:18:00,73.6,69.8,29.19,SSW,205,2.0,15.0,88,0.00,,,0.00,meteohub,2013-10-05 09:18:00,
2013-10-05 04:23:00,73.4,69.6,29.19,South,178,1.0,15.0,88,0.00,,,0.00,meteohub,2013-10-05 09:23:00,
2013-10-05 04:28:00,73.4,69.6,29.18,SSW,194,5.0,14.0,88,0.00,,,0.00,meteohub,2013-10-05 09:28:00,
2013-10-05 04:33:00,73.2,69.4,29.19,SW,225,0.0,14.0,88,0.00,,,0.00,meteohub,2013-10-05 09:33:00,
2013-10-05 04:38:00,73.2,69.4,29.19,SW,225,0.0,14.0,88,0.00,,,0.00,meteohub,2013-10-05 09:38:00,
2013-10-05 04:43:00,73.2,69.4,29.19,SSW,213,5.0,9.0,88,0.00,,,0.00,meteohub,2013-10-05 09:43:00,
2013-10-05 04:48:00,73.2,69.4,29.19,South,191,0.0,9.0,88,0.00,,,0.00,meteohub,2013-10-05 09:48:00,
2013-10-05 04:53:00,73.2,69.4,29.19,South,177,0.0,9.0,88,0.00,,,0.00,meteohub,2013-10-05 09:53:00,
2013-10-05 04:58:00,73.0,69.3,29.19,SSW,204,1.0,9.0,88,0.00,,,0.00,meteohub,2013-10-05 09:58:00,
2013-10-05 05:03:00,73.0,69.3,29.19,SW,214,0.0,9.0,88,0.00,,,0.00,meteohub,2013-10-05 10:03:00,
2013-10-05 05:08:00,73.0,69.3,29.19,South,176,0.0,9.0,88,0.00,,,0.00,meteohub,2013-10-05 10:08:00,
2013-10-05 05:13:00,73.0,69.3,29.19,SSW,194,3.0,9.0,88,0.00,,,0.00,meteohub,2013-10-05 10:13:00,
2013-10-05 05:18:00,72.9,69.1,29.20,SW,216,0.0,7.0,88,0.00,,,0.00,meteohub,2013-10-05 10:18:00,
2013-10-05 05:23:00,72.9,69.4,29.20,SSW,196,0.0,7.0,89,0.00,,,0.00,meteohub,2013-10-05 10:23:00,
2013-10-05 05:28:00,72.9,69.4,29.20,South,188,3.0,6.0,89,0.00,,,0.00,meteohub,2013-10-05 10:28:00,
2013-10-05 05:33:00,72.7,69.3,29.20,South,189,0.0,7.0,89,0.00,,,0.00,meteohub,2013-10-05 10:33:00,
2013-10-05 05:38:00,72.7,69.3,29.20,South,181,0.0,7.0,89,0.00,,,0.00,meteohub,2013-10-05 10:38:00,
2013-10-05 05:43:00,72.7,69.3,29.20,South,183,2.0,7.0,89,0.00,,,0.00,meteohub,2013-10-05 10:43:00,
2013-10-05 05:48:00,72.7,69.3,29.20,SW,232,0.0,6.0,89,0.00,,,0.00,meteohub,2013-10-05 10:48:00,
2013-10-05 05:53:00,72.7,69.3,29.20,South,186,0.0,6.0,89,0.00,,,0.00,meteohub,2013-10-05 10:53:00,
2013-10-05 05:58:00,72.7,69.3,29.20,SSW,193,0.0,6.0,89,0.00,,,0.00,meteohub,2013-10-05 10:58:00,
2013-10-05 06:03:00,72.7,69.3,29.21,SSW,194,3.0,6.0,89,0.00,,,0.00,meteohub,2013-10-05 11:03:00,
2013-10-05 06:08:00,72.5,69.1,29.21,SW,214,0.0,6.0,89,0.00,,,0.00,meteohub,2013-10-05 11:08:00,
2013-10-05 06:13:00,72.5,69.1,29.21,SSW,201,0.0,5.0,89,0.00,,,0.00,meteohub,2013-10-05 11:13:00,
2013-10-05 06:18:00,72.3,68.9,29.21,SW,214,0.0,5.0,89,0.00,,,0.00,meteohub,2013-10-05 11:18:00,
2013-10-05 06:23:00,72.3,68.9,29.21,SSW,211,0.0,5.0,89,0.00,,,0.00,meteohub,2013-10-05 11:23:00,
2013-10-05 06:28:00,72.3,69.3,29.21,South,188,0.0,5.0,90,0.00,,,0.00,meteohub,2013-10-05 11:28:00,
2013-10-05 06:33:00,72.3,69.3,29.21,SW,216,4.0,7.0,90,0.00,,,0.00,meteohub,2013-10-05 11:33:00,
2013-10-05 06:38:00,72.3,69.3,29.21,SSW,198,0.0,7.0,90,0.00,,,0.00,meteohub,2013-10-05 11:38:00,
2013-10-05 06:43:00,72.3,69.3,29.21,SW,215,0.0,5.0,90,0.00,,,0.00,meteohub,2013-10-05 11:43:00,
2013-10-05 06:48:00,72.1,69.1,29.21,South,182,4.0,7.0,90,0.00,,,0.00,meteohub,2013-10-05 11:48:00,
2013-10-05 06:53:00,72.1,69.1,29.21,SSW,209,5.0,7.0,90,0.00,,,0.00,meteohub,2013-10-05 11:53:00,
2013-10-05 06:58:00,72.1,69.1,29.21,SSW,195,4.0,7.0,90,0.00,,,0.00,meteohub,2013-10-05 11:58:00,
2013-10-05 07:03:00,72.1,69.1,29.21,SW,219,0.0,6.0,90,0.00,,,0.00,meteohub,2013-10-05 12:03:00,
2013-10-05 07:08:00,72.1,69.1,29.21,SW,218,0.0,6.0,90,0.00,,,0.00,meteohub,2013-10-05 12:08:00,
2013-10-05 07:13:00,72.1,69.1,29.21,SSW,209,3.0,6.0,90,0.00,,,0.00,meteohub,2013-10-05 12:13:00,
2013-10-05 07:18:00,72.1,69.4,29.22,SW,234,0.0,4.0,91,0.00,,,0.00,meteohub,2013-10-05 12:18:00,
2013-10-05 07:23:00,72.0,69.3,29.22,WSW,253,0.0,9.0,91,0.00,,,0.00,meteohub,2013-10-05 12:23:00,
2013-10-05 07:28:00,72.0,69.3,29.22,SW,234,6.0,9.0,91,0.00,,,0.00,meteohub,2013-10-05 12:28:00,
2013-10-05 07:33:00,72.0,69.3,29.22,SW,233,0.0,7.0,91,0.00,,,0.00,meteohub,2013-10-05 12:33:00,
2013-10-05 07:38:00,72.0,69.3,29.23,SSW,205,5.0,7.0,91,0.00,,,0.00,meteohub,2013-10-05 12:38:00,
2013-10-05 07:43:00,72.0,69.3,29.23,WSW,237,0.0,9.0,91,0.00,,,0.00,meteohub,2013-10-05 12:43:00,
2013-10-05 07:48:00,72.0,68.9,29.23,WSW,240,3.0,9.0,90,0.00,,,0.00,meteohub,2013-10-05 12:48:00,
2013-10-05 07:53:00,72.0,68.9,29.23,WSW,254,5.0,9.0,90,0.00,,,0.00,meteohub,2013-10-05 12:53:00,
2013-10-05 07:58:00,71.8,68.0,29.22,SW,228,6.0,12.0,88,0.00,,,0.00,meteohub,2013-10-05 12:58:00,
2013-10-05 08:03:00,72.0,68.2,29.22,WNW,289,0.0,12.0,88,0.00,,,0.00,meteohub,2013-10-05 13:03:00,
2013-10-05 08:08:00,72.0,68.2,29.22,West,266,0.0,12.0,88,0.00,,,0.00,meteohub,2013-10-05 13:08:00,
2013-10-05 08:13:00,72.0,68.2,29.22,West,271,4.0,9.0,88,0.00,,,0.00,meteohub,2013-10-05 13:13:00,
2013-10-05 08:18:00,72.0,68.2,29.22,WNW,294,3.0,5.0,88,0.00,,,0.00,meteohub,2013-10-05 13:18:00,
2013-10-05 08:23:00,71.8,67.3,29.22,NW,308,12.0,12.0,86,0.00,,,0.00,meteohub,2013-10-05 13:23:00,
2013-10-05 08:29:00,71.8,67.1,29.22,West,259,0.0,12.0,85,0.00,,,0.00,meteohub,2013-10-05 13:29:00,
2013-10-05 08:34:00,71.8,67.1,29.22,WSW,243,1.0,13.0,85,0.00,,,0.00,meteohub,2013-10-05 13:34:00,
2013-10-05 08:39:00,71.8,67.3,29.23,WSW,248,0.0,13.0,86,0.00,,,0.00,meteohub,2013-10-05 13:39:00,
2013-10-05 08:44:00,71.4,66.4,29.23,West,267,6.0,13.0,84,0.00,,,0.00,meteohub,2013-10-05 13:44:00,
2013-10-05 08:49:00,71.2,66.2,29.23,WSW,252,0.0,12.0,84,0.00,,,0.00,meteohub,2013-10-05 13:49:00,
2013-10-05 08:54:00,71.2,66.6,29.22,WSW,256,0.0,13.0,85,0.00,,,0.00,meteohub,2013-10-05 13:54:00,
2013-10-05 08:59:00,71.1,66.4,29.22,WSW,240,0.0,13.0,85,0.00,,,0.00,meteohub,2013-10-05 13:59:00,
2013-10-05 09:04:00,71.1,66.0,29.22,SSW,211,9.0,10.0,84,0.00,,,0.00,meteohub,2013-10-05 14:04:00,
2013-10-05 09:09:00,70.7,65.3,29.23,WSW,250,9.0,9.0,83,0.00,,,0.00,meteohub,2013-10-05 14:09:00,
2013-10-05 09:14:00,70.7,65.3,29.23,SW,235,0.0,11.0,83,0.00,,,0.00,meteohub,2013-10-05 14:14:00,
2013-10-05 09:19:00,70.5,65.1,29.23,West,262,8.0,11.0,83,0.00,,,0.00,meteohub,2013-10-05 14:19:00,
2013-10-05 09:24:00,70.3,64.9,29.22,SSW,207,0.0,9.0,83,0.00,,,0.00,meteohub,2013-10-05 14:24:00,
2013-10-05 09:29:00,70.5,65.5,29.22,South,180,2.0,8.0,84,0.00,,,0.00,meteohub,2013-10-05 14:29:00,
2013-10-05 09:34:00,70.5,65.5,29.22,South,189,3.0,8.0,84,0.00,,,0.00,meteohub,2013-10-05 14:34:00,
2013-10-05 09:39:00,70.5,65.8,29.22,SSW,207,0.0,7.0,85,0.00,,,0.00,meteohub,2013-10-05 14:39:00,
2013-10-05 09:44:00,70.3,65.3,29.23,WSW,248,5.0,8.0,84,0.00,,,0.00,meteohub,2013-10-05 14:44:00,
2013-10-05 09:49:00,70.2,64.8,29.23,SW,219,3.0,8.0,83,0.00,,,0.00,meteohub,2013-10-05 14:49:00,
2013-10-05 09:54:00,70.2,65.1,29.23,WSW,253,4.0,10.0,84,0.00,,,0.00,meteohub,2013-10-05 14:54:00,
2013-10-05 09:59:00,70.0,64.9,29.23,WSW,248,4.0,10.0,84,0.00,,,0.00,meteohub,2013-10-05 14:59:00,
2013-10-05 10:04:00,69.4,64.0,29.23,SW,228,2.0,10.0,83,0.00,,,0.00,meteohub,2013-10-05 15:04:00,
2013-10-05 10:09:00,69.3,64.2,29.24,WSW,258,2.0,11.0,84,0.00,,,0.00,meteohub,2013-10-05 15:09:00,
2013-10-05 10:14:00,68.9,64.2,29.26,WNW,284,8.0,11.0,85,0.00,,,0.00,meteohub,2013-10-05 15:14:00,
2013-10-05 10:19:00,68.5,64.2,29.26,SW,234,11.0,14.0,86,0.00,,,0.00,meteohub,2013-10-05 15:19:00,
2013-10-05 10:24:00,68.2,64.2,29.26,SW,215,0.0,14.0,87,0.00,,,0.00,meteohub,2013-10-05 15:24:00,
2013-10-05 10:29:00,67.8,63.9,29.26,SW,231,0.0,15.0,87,0.00,,,0.00,meteohub,2013-10-05 15:29:00,
2013-10-05 10:34:00,67.5,63.9,29.26,WSW,245,0.0,15.0,88,0.00,,,0.00,meteohub,2013-10-05 15:34:00,
2013-10-05 10:39:00,67.3,63.7,29.26,SW,227,0.0,11.0,88,0.00,,,0.00,meteohub,2013-10-05 15:39:00,
2013-10-05 10:44:00,66.9,63.3,29.26,West,271,5.0,11.0,88,0.00,,,0.00,meteohub,2013-10-05 15:44:00,
2013-10-05 10:49:00,66.4,62.4,29.25,WNW,292,0.0,6.0,87,0.00,,,0.00,meteohub,2013-10-05 15:49:00,
2013-10-05 10:54:00,65.7,62.1,29.25,WNW,292,0.0,9.0,88,0.00,,,0.00,meteohub,2013-10-05 15:54:00,
2013-10-05 10:59:00,65.3,62.1,29.25,WNW,292,1.0,9.0,89,0.00,,,0.00,meteohub,2013-10-05 15:59:00,
2013-10-05 11:04:00,64.8,61.5,29.25,WNW,290,2.0,6.0,89,0.00,,,0.00,meteohub,2013-10-05 16:04:00,
2013-10-05 11:09:00,64.6,61.5,29.23,North,351,0.0,3.0,90,0.00,,,0.00,meteohub,2013-10-05 16:09:00,
2013-10-05 11:14:00,64.2,61.2,29.25,WNW,302,3.0,5.0,90,0.00,,,0.00,meteohub,2013-10-05 16:14:00,
2013-10-05 11:19:00,63.7,60.6,29.25,WNW,302,1.0,9.0,90,0.00,,,0.00,meteohub,2013-10-05 16:19:00,
2013-10-05 11:24:00,63.5,60.8,29.24,WNW,302,0.0,9.0,91,0.00,,,0.00,meteohub,2013-10-05 16:24:00,
2013-10-05 11:29:00,63.3,60.6,29.24,WNW,302,0.0,9.0,91,0.00,,,0.00,meteohub,2013-10-05 16:29:00,
2013-10-05 11:34:00,63.3,60.6,29.24,WNW,302,2.0,4.0,91,0.00,,,0.00,meteohub,2013-10-05 16:34:00,
2013-10-05 11:40:00,63.3,61.0,29.24,WNW,302,2.0,4.0,92,0.00,,,0.00,meteohub,2013-10-05 16:40:00,
2013-10-05 11:45:00,63.7,61.3,29.23,WNW,302,1.0,4.0,92,0.00,,,0.00,meteohub,2013-10-05 16:45:00,
2013-10-05 11:50:00,63.3,60.6,29.23,WNW,302,0.0,5.0,91,0.00,,,0.00,meteohub,2013-10-05 16:50:00,
2013-10-05 11:55:00,63.1,60.4,29.23,NW,317,0.0,9.0,91,0.00,,,0.00,meteohub,2013-10-05 16:55:00,
2013-10-05 12:00:00,63.3,61.0,29.24,West,266,5.0,9.0,92,0.00,,,0.00,meteohub,2013-10-05 17:00:00,
2013-10-05 12:05:00,63.3,61.0,29.24,West,259,3.0,13.0,92,0.00,,,0.00,meteohub,2013-10-05 17:05:00,
2013-10-05 12:10:00,63.3,61.0,29.25,West,271,4.0,13.0,92,0.00,,,0.00,meteohub,2013-10-05 17:10:00,
2013-10-05 12:15:00,63.3,61.0,29.25,WSW,243,6.0,11.0,92,0.00,,,0.00,meteohub,2013-10-05 17:15:00,
2013-10-05 12:20:00,63.1,60.8,29.25,WSW,255,4.0,11.0,92,0.00,,,0.00,meteohub,2013-10-05 17:20:00,
2013-10-05 12:25:00,62.8,60.4,29.25,WSW,253,10.0,15.0,92,0.00,,,0.00,meteohub,2013-10-05 17:25:00,
2013-10-05 12:30:00,62.4,60.1,29.25,WSW,246,7.0,15.0,92,0.00,,,0.00,meteohub,2013-10-05 17:30:00,
2013-10-05 12:35:00,62.2,59.9,29.25,WSW,240,7.0,15.0,92,0.00,,,0.00,meteohub,2013-10-05 17:35:00,
2013-10-05 12:40:00,62.4,60.1,29.25,West,277,1.0,14.0,92,0.00,,,0.00,meteohub,2013-10-05 17:40:00,
2013-10-05 12:45:00,62.4,60.1,29.24,West,273,6.0,14.0,92,0.00,,,0.00,meteohub,2013-10-05 17:45:00,
2013-10-05 12:50:00,62.4,60.1,29.24,SW,234,0.0,11.0,92,0.00,,,0.00,meteohub,2013-10-05 17:50:00,
2013-10-05 12:55:00,62.4,59.7,29.24,WSW,247,3.0,13.0,91,0.00,,,0.00,meteohub,2013-10-05 17:55:00,
2013-10-05 13:00:00,62.4,59.7,29.24,West,263,7.0,13.0,91,0.00,,,0.00,meteohub,2013-10-05 18:00:00,
2013-10-05 13:05:00,62.4,59.4,29.25,West,277,1.0,15.0,90,0.00,,,0.00,meteohub,2013-10-05 18:05:00,
2013-10-05 13:10:00,62.6,59.4,29.25,WSW,249,6.0,15.0,89,0.00,,,0.00,meteohub,2013-10-05 18:10:00,
2013-10-05 13:15:00,62.2,58.6,29.25,SW,229,1.0,14.0,88,0.00,,,0.00,meteohub,2013-10-05 18:15:00,
2013-10-05 13:20:00,61.9,57.9,29.24,SW,220,10.0,14.0,87,0.00,,,0.00,meteohub,2013-10-05 18:20:00,
2013-10-05 13:25:00,61.5,57.9,29.24,NW,318,1.0,14.0,88,0.00,,,0.00,meteohub,2013-10-05 18:25:00,
2013-10-05 13:30:00,61.2,56.7,29.23,West,265,4.0,14.0,85,0.00,,,0.00,meteohub,2013-10-05 18:30:00,
2013-10-05 13:35:00,60.8,56.3,29.23,West,272,7.0,14.0,85,0.00,,,0.00,meteohub,2013-10-05 18:35:00,
2013-10-05 13:40:00,60.4,55.6,29.23,WSW,247,0.0,16.0,84,0.00,,,0.00,meteohub,2013-10-05 18:40:00,
2013-10-05 13:45:00,60.4,55.9,29.21,WNW,294,5.0,16.0,85,0.00,,,0.00,meteohub,2013-10-05 18:45:00,
2013-10-05 13:50:00,60.6,56.1,29.22,WNW,283,9.0,16.0,85,0.00,,,0.00,meteohub,2013-10-05 18:50:00,
2013-10-05 13:55:00,61.0,56.5,29.21,West,265,0.0,12.0,85,0.00,,,0.00,meteohub,2013-10-05 18:55:00,
2013-10-05 14:00:00,61.0,55.8,29.22,West,261,1.0,11.0,83,0.00,,,0.00,meteohub,2013-10-05 19:00:00,
2013-10-05 14:05:00,61.0,55.8,29.21,NE,36,4.0,11.0,83,0.00,,,0.00,meteohub,2013-10-05 19:05:00,
2013-10-05 14:10:00,60.6,55.0,29.22,WSW,256,0.0,10.0,82,0.00,,,0.00,meteohub,2013-10-05 19:10:00,
2013-10-05 14:15:00,60.6,55.4,29.22,WSW,253,5.0,10.0,83,0.00,,,0.00,meteohub,2013-10-05 19:15:00,
2013-10-05 14:20:00,60.4,55.2,29.21,West,262,3.0,10.0,83,0.00,,,0.00,meteohub,2013-10-05 19:20:00,
2013-10-05 14:25:00,60.6,55.8,29.21,WSW,250,3.0,9.0,84,0.00,,,0.00,meteohub,2013-10-05 19:25:00,
2013-10-05 14:30:00,60.3,55.8,29.21,WSW,249,3.0,9.0,85,0.00,,,0.00,meteohub,2013-10-05 19:30:00,
2013-10-05 14:35:00,59.5,55.4,29.21,SW,232,6.0,9.0,86,0.00,,,0.00,meteohub,2013-10-05 19:35:00,
2013-10-05 14:40:00,59.0,55.2,29.21,West,270,0.0,9.0,87,0.00,,,0.00,meteohub,2013-10-05 19:40:00,
2013-10-05 14:45:00,58.6,54.9,29.20,West,266,0.0,7.0,87,0.00,,,0.00,meteohub,2013-10-05 19:45:00,
2013-10-05 14:50:00,58.3,54.7,29.20,SW,231,2.0,8.0,88,0.00,,,0.00,meteohub,2013-10-05 19:50:00,
2013-10-05 14:55:00,57.7,54.1,29.22,SW,235,6.0,8.0,88,0.00,,,0.00,meteohub,2013-10-05 19:55:00,
2013-10-05 15:00:00,57.0,53.4,29.21,SW,229,4.0,13.0,88,0.00,,,0.00,meteohub,2013-10-05 20:00:00,
2013-10-05 15:05:00,56.7,53.1,29.22,WSW,238,6.0,13.0,88,0.00,,,0.00,meteohub,2013-10-05 20:05:00,
2013-10-05 15:10:00,56.5,53.2,29.21,WSW,245,6.0,13.0,89,0.00,,,0.00,meteohub,2013-10-05 20:10:00,
2013-10-05 15:15:00,56.1,52.9,29.21,WSW,258,5.0,10.0,89,0.00,,,0.00,meteohub,2013-10-05 20:15:00,
2013-10-05 15:21:00,55.9,53.1,29.20,West,261,3.0,7.0,90,0.00,,,0.00,meteohub,2013-10-05 20:21:00,
2013-10-05 15:26:00,55.9,53.1,29.20,WNW,293,1.0,10.0,90,0.00,,,0.00,meteohub,2013-10-05 20:26:00,
2013-10-05 15:31:00,55.9,53.4,29.18,WNW,298,0.0,10.0,91,0.00,,,0.00,meteohub,2013-10-05 20:31:00,
2013-10-05 15:36:00,55.9,53.4,29.21,WSW,242,4.0,10.0,91,0.00,,,0.00,meteohub,2013-10-05 20:36:00,
2013-10-05 15:41:00,55.9,53.4,29.20,West,276,2.0,7.0,91,0.00,,,0.00,meteohub,2013-10-05 20:41:00,
2013-10-05 15:46:00,55.8,53.2,29.21,West,278,0.0,9.0,91,0.00,,,0.00,meteohub,2013-10-05 20:46:00,
2013-10-05 15:51:00,55.8,53.2,29.21,West,259,5.0,11.0,91,0.00,,,0.00,meteohub,2013-10-05 20:51:00,
2013-10-05 15:56:00,55.8,53.4,29.21,West,264,5.0,11.0,92,0.00,,,0.00,meteohub,2013-10-05 20:56:00,
2013-10-05 16:01:00,55.9,53.6,29.20,WSW,252,4.0,11.0,92,0.00,,,0.00,meteohub,2013-10-05 21:01:00,
2013-10-05 16:06:00,55.9,53.4,29.20,WSW,257,1.0,11.0,91,0.00,,,0.00,meteohub,2013-10-05 21:06:00,
2013-10-05 16:11:00,55.9,53.4,29.20,West,278,5.0,11.0,91,0.00,,,0.00,meteohub,2013-10-05 21:11:00,
2013-10-05 16:16:00,56.1,53.6,29.21,West,271,0.0,11.0,91,0.00,,,0.00,meteohub,2013-10-05 21:16:00,
2013-10-05 16:21:00,56.1,53.2,29.21,WSW,250,6.0,10.0,90,0.00,,,0.00,meteohub,2013-10-05 21:21:00,
2013-10-05 16:26:00,56.1,52.9,29.20,SW,227,4.0,12.0,89,0.00,,,0.00,meteohub,2013-10-05 21:26:00,
2013-10-05 16:31:00,56.1,52.9,29.20,SW,221,0.0,12.0,89,0.00,,,0.00,meteohub,2013-10-05 21:31:00,
2013-10-05 16:36:00,56.1,52.3,29.20,SW,232,2.0,12.0,87,0.00,,,0.00,meteohub,2013-10-05 21:36:00,
2013-10-05 16:41:00,55.9,52.2,29.20,SW,224,2.0,10.0,87,0.00,,,0.00,meteohub,2013-10-05 21:41:00,
2013-10-05 16:46:00,55.9,51.8,29.20,WSW,258,1.0,11.0,86,0.00,,,0.00,meteohub,2013-10-05 21:46:00,
2013-10-05 16:51:00,55.9,51.8,29.20,SW,235,5.0,11.0,86,0.00,,,0.00,meteohub,2013-10-05 21:51:00,
2013-10-05 16:56:00,55.8,51.6,29.20,WSW,257,4.0,11.0,86,0.00,,,0.00,meteohub,2013-10-05 21:56:00,
2013-10-05 17:01:00,55.8,51.3,29.20,West,259,6.0,10.0,85,0.00,,,0.00,meteohub,2013-10-05 22:01:00,
2013-10-05 17:06:00,55.6,51.1,29.20,WSW,246,0.0,14.0,85,0.00,,,0.00,meteohub,2013-10-05 22:06:00,
2013-10-05 17:11:00,55.6,51.1,29.19,SW,235,0.0,14.0,85,0.00,,,0.00,meteohub,2013-10-05 22:11:00,
2013-10-05 17:16:00,55.8,51.3,29.20,SW,232,0.0,14.0,85,0.00,,,0.00,meteohub,2013-10-05 22:16:00,
2013-10-05 17:21:00,55.8,51.6,29.20,WSW,246,0.0,11.0,86,0.00,,,0.00,meteohub,2013-10-05 22:21:00,
2013-10-05 17:26:00,55.8,51.3,29.20,West,268,0.0,6.0,85,0.00,,,0.00,meteohub,2013-10-05 22:26:00,
2013-10-05 17:31:00,55.8,51.3,29.19,West,264,4.0,6.0,85,0.00,,,0.00,meteohub,2013-10-05 22:31:00,
2013-10-05 17:36:00,55.8,51.3,29.20,WSW,240,0.0,6.0,85,0.00,,,0.00,meteohub,2013-10-05 22:36:00,
2013-10-05 17:41:00,55.8,51.1,29.21,SSW,200,1.0,6.0,84,0.00,,,0.00,meteohub,2013-10-05 22:41:00,
2013-10-05 17:46:00,55.8,51.1,29.21,SSW,208,2.0,7.0,84,0.00,,,0.00,meteohub,2013-10-05 22:46:00,
2013-10-05 17:51:00,55.8,51.3,29.21,SSW,213,0.0,7.0,85,0.00,,,0.00,meteohub,2013-10-05 22:51:00,
2013-10-05 17:56:00,55.9,51.4,29.21,SSW,211,0.0,7.0,85,0.00,,,0.00,meteohub,2013-10-05 22:56:00,
2013-10-05 18:01:00,55.9,51.4,29.21,SSE,168,0.0,6.0,85,0.00,,,0.00,meteohub,2013-10-05 23:01:00,
2013-10-05 18:06:00,55.8,51.3,29.21,South,178,0.0,10.0,85,0.00,,,0.00,meteohub,2013-10-05 23:06:00,
2013-10-05 18:11:00,55.8,51.3,29.21,SSW,210,0.0,10.0,85,0.00,,,0.00,meteohub,2013-10-05 23:11:00,
2013-10-05 18:16:00,55.8,51.3,29.21,SW,231,4.0,10.0,85,0.00,,,0.00,meteohub,2013-10-05 23:16:00,
2013-10-05 18:21:00,55.6,51.1,29.21,SSW,213,0.0,9.0,85,0.00,,,0.00,meteohub,2013-10-05 23:21:00,
2013-10-05 18:26:00,55.6,51.4,29.21,South,185,0.0,9.0,86,0.00,,,0.00,meteohub,2013-10-05 23:26:00,
2013-10-05 18:31:00,55.4,51.3,29.21,SSE,161,4.0,9.0,86,0.00,,,0.00,meteohub,2013-10-05 23:31:00,
2013-10-05 18:37:00,55.2,51.1,29.21,South,173,0.0,6.0,86,0.00,,,0.00,meteohub,2013-10-05 23:37:00,
2013-10-05 18:42:00,55.0,51.3,29.21,South,175,1.0,7.0,87,0.00,,,0.00,meteohub,2013-10-05 23:42:00,
2013-10-05 18:47:00,54.9,51.1,29.21,SSW,213,2.0,8.0,87,0.00,,,0.00,meteohub,2013-10-05 23:47:00,
2013-10-05 18:52:00,54.9,51.4,29.21,South,186,4.0,8.0,88,0.00,,,0.00,meteohub,2013-10-05 23:52:00,
2013-10-05 18:57:00,54.7,51.3,29.21,South,185,1.0,8.0,88,0.00,,,0.00,meteohub,2013-10-05 23:57:00,
2013-10-05 19:02:00,54.5,51.3,29.21,SSW,196,5.0,10.0,89,0.00,,,0.00,meteohub,2013-10-06 00:02:00,
2013-10-05 19:07:00,54.5,51.3,29.21,South,188,1.0,10.0,89,0.00,,,0.00,meteohub,2013-10-06 00:07:00,
2013-10-05 19:12:00,54.3,51.1,29.21,SSW,202,6.0,10.0,89,0.00,,,0.00,meteohub,2013-10-06 00:12:00,
2013-10-05 19:17:00,54.3,51.1,29.22,SSW,198,3.0,11.0,89,0.00,,,0.00,meteohub,2013-10-06 00:17:00,
2013-10-05 19:22:00,54.3,51.4,29.22,SSW,213,3.0,11.0,90,0.00,,,0.00,meteohub,2013-10-06 00:22:00,
2013-10-05 19:27:00,54.3,51.4,29.22,SSE,166,3.0,11.0,90,0.00,,,0.00,meteohub,2013-10-06 00:27:00,
2013-10-05 19:32:00,54.3,51.4,29.21,SSW,203,0.0,9.0,90,0.00,,,0.00,meteohub,2013-10-06 00:32:00,
2013-10-05 19:37:00,54.3,51.4,29.21,SSW,202,0.0,9.0,90,0.00,,,0.00,meteohub,2013-10-06 00:37:00,
2013-10-05 19:42:00,54.3,51.4,29.22,South,188,0.0,9.0,90,0.00,,,0.00,meteohub,2013-10-06 00:42:00,
2013-10-05 19:47:00,54.3,51.4,29.22,South,179,3.0,7.0,90,0.00,,,0.00,meteohub,2013-10-06 00:47:00,
2013-10-05 19:52:00,54.3,51.4,29.22,South,190,0.0,9.0,90,0.00,,,0.00,meteohub,2013-10-06 00:52:00,
2013-10-05 19:57:00,54.3,51.4,29.22,SSW,192,4.0,9.0,90,0.00,,,0.00,meteohub,2013-10-06 00:57:00,
2013-10-05 20:02:00,54.3,51.4,29.22,SSW,209,4.0,9.0,90,0.00,,,0.00,meteohub,2013-10-06 01:02:00,
2013-10-05 20:07:00,54.3,51.4,29.22,SW,233,6.0,9.0,90,0.00,,,0.00,meteohub,2013-10-06 01:07:00,
2013-10-05 20:12:00,54.3,51.4,29.22,SSW,208,0.0,9.0,90,0.00,,,0.00,meteohub,2013-10-06 01:12:00,
2013-10-05 20:17:00,54.3,51.4,29.23,SSW,196,0.0,10.0,90,0.00,,,0.00,meteohub,2013-10-06 01:17:00,
2013-10-05 20:22:00,54.3,51.4,29.23,WSW,239,4.0,11.0,90,0.00,,,0.00,meteohub,2013-10-06 01:22:00,
2013-10-05 20:27:00,54.1,51.3,29.23,SSW,206,2.0,11.0,90,0.00,,,0.00,meteohub,2013-10-06 01:27:00,
2013-10-05 20:32:00,54.1,51.3,29.22,SW,216,0.0,11.0,90,0.00,,,0.00,meteohub,2013-10-06 01:32:00,
2013-10-05 20:37:00,54.1,51.3,29.22,SW,220,0.0,11.0,90,0.00,,,0.00,meteohub,2013-10-06 01:37:00,
2013-10-05 20:42:00,54.1,51.3,29.23,WSW,237,5.0,9.0,90,0.00,,,0.00,meteohub,2013-10-06 01:42:00,
2013-10-05 20:47:00,54.0,51.1,29.22,WSW,239,4.0,7.0,90,0.00,,,0.00,meteohub,2013-10-06 01:47:00,
2013-10-05 20:52:00,54.0,51.1,29.22,SW,226,0.0,9.0,90,0.00,,,0.00,meteohub,2013-10-06 01:52:00,
2013-10-05 20:57:00,54.0,51.1,29.22,SW,228,0.0,10.0,90,0.00,,,0.00,meteohub,2013-10-06 01:57:00,
2013-10-05 21:02:00,54.0,51.1,29.22,SW,229,3.0,10.0,90,0.00,,,0.00,meteohub,2013-10-06 02:02:00,
2013-10-05 21:07:00,53.8,50.9,29.22,SW,219,5.0,10.0,90,0.00,,,0.00,meteohub,2013-10-06 02:07:00,
2013-10-05 21:12:00,53.8,50.9,29.22,WSW,241,5.0,9.0,90,0.00,,,0.00,meteohub,2013-10-06 02:12:00,
2013-10-05 21:17:00,53.6,50.7,29.22,SSW,202,0.0,6.0,90,0.00,,,0.00,meteohub,2013-10-06 02:17:00,
2013-10-05 21:22:00,53.4,50.5,29.22,SW,236,0.0,7.0,90,0.00,,,0.00,meteohub,2013-10-06 02:22:00,
2013-10-05 21:27:00,53.4,50.5,29.22,SW,232,3.0,8.0,90,0.00,,,0.00,meteohub,2013-10-06 02:27:00,
2013-10-05 21:32:00,53.2,50.4,29.22,South,191,4.0,8.0,90,0.00,,,0.00,meteohub,2013-10-06 02:32:00,
2013-10-05 21:37:00,53.2,50.7,29.22,WSW,238,0.0,10.0,91,0.00,,,0.00,meteohub,2013-10-06 02:37:00,
2013-10-05 21:42:00,53.1,50.5,29.22,WSW,250,0.0,10.0,91,0.00,,,0.00,meteohub,2013-10-06 02:42:00,
2013-10-05 21:47:00,53.1,50.5,29.22,West,259,3.0,10.0,91,0.00,,,0.00,meteohub,2013-10-06 02:47:00,
2013-10-05 21:52:00,53.1,50.5,29.22,West,259,0.0,10.0,91,0.00,,,0.00,meteohub,2013-10-06 02:52:00,
2013-10-05 21:57:00,53.1,50.5,29.22,SW,229,2.0,10.0,91,0.00,,,0.00,meteohub,2013-10-06 02:57:00,
2013-10-05 22:02:00,52.9,50.4,29.23,SW,229,4.0,10.0,91,0.00,,,0.00,meteohub,2013-10-06 03:02:00,
2013-10-05 22:07:00,52.9,50.4,29.23,WSW,239,0.0,12.0,91,0.00,,,0.00,meteohub,2013-10-06 03:07:00,
2013-10-05 22:12:00,52.9,50.5,29.23,WSW,248,4.0,12.0,92,0.00,,,0.00,meteohub,2013-10-06 03:12:00,
2013-10-05 22:17:00,52.9,50.5,29.23,WSW,240,2.0,12.0,92,0.00,,,0.00,meteohub,2013-10-06 03:17:00,
2013-10-05 22:22:00,52.9,50.5,29.23,SW,233,1.0,9.0,92,0.00,,,0.00,meteohub,2013-10-06 03:22:00,
2013-10-05 22:27:00,52.7,50.2,29.23,WSW,238,0.0,9.0,91,0.00,,,0.00,meteohub,2013-10-06 03:27:00,
2013-10-05 22:32:00,52.5,50.2,29.23,SW,233,1.0,7.0,92,0.00,,,0.00,meteohub,2013-10-06 03:32:00,
2013-10-05 22:37:00,52.5,50.0,29.22,WSW,248,0.0,6.0,91,0.00,,,0.00,meteohub,2013-10-06 03:37:00,
2013-10-05 22:42:00,52.3,50.0,29.22,SW,223,0.0,6.0,92,0.00,,,0.00,meteohub,2013-10-06 03:42:00,
2013-10-05 22:47:00,52.3,50.0,29.23,SW,223,0.0,5.0,92,0.00,,,0.00,meteohub,2013-10-06 03:47:00,
2013-10-05 22:52:00,52.3,50.0,29.23,SW,228,0.0,4.0,92,0.00,,,0.00,meteohub,2013-10-06 03:52:00,
2013-10-05 22:57:00,52.2,49.8,29.22,SW,222,0.0,4.0,92,0.00,,,0.00,meteohub,2013-10-06 03:57:00,
2013-10-05 23:01:00,52.2,49.8,29.22,SW,214,0.0,5.0,92,0.00,,,0.00,meteohub,2013-10-06 04:01:00,
2013-10-05 23:04:00,52.0,49.6,29.22,SW,224,2.0,5.0,92,0.00,,,0.00,meteohub,2013-10-06 04:04:00,
2013-10-05 23:09:00,52.0,49.6,29.22,SW,232,0.0,5.0,92,0.00,,,0.00,meteohub,2013-10-06 04:09:00,
2013-10-05 23:14:00,51.6,49.1,29.22,WSW,247,0.0,5.0,91,0.00,,,0.00,meteohub,2013-10-06 04:14:00,
2013-10-05 23:19:00,51.4,48.9,29.21,SW,231,3.0,5.0,91,0.00,,,0.00,meteohub,2013-10-06 04:19:00,
2013-10-05 23:24:00,51.3,48.4,29.21,WSW,248,0.0,5.0,90,0.00,,,0.00,meteohub,2013-10-06 04:24:00,
2013-10-05 23:29:00,51.3,48.4,29.21,WSW,248,0.0,5.0,90,0.00,,,0.00,meteohub,2013-10-06 04:29:00,
2013-10-05 23:34:00,51.3,48.4,29.21,WSW,248,0.0,5.0,90,0.00,,,0.00,meteohub,2013-10-06 04:34:00,
2013-10-05 23:39:00,51.3,48.4,29.20,WSW,248,0.0,5.0,90,0.00,,,0.00,meteohub,2013-10-06 04:39:00,
2013-10-05 23:44:00,51.3,48.4,29.21,WSW,248,0.0,3.0,90,0.00,,,0.00,meteohub,2013-10-06 04:44:00,
2013-10-05 23:49:00,51.1,48.2,29.21,WSW,248,0.0,1.0,90,0.00,,,0.00,meteohub,2013-10-06 04:49:00,
2013-10-05 23:54:00,50.9,48.0,29.20,WSW,248,0.0,0.0,90,0.00,,,0.00,meteohub,2013-10-06 04:54:00,
2013-10-05 23:59:00,50.7,47.8,29.20,WSW,248,0.0,0.0,90,0.00,,,0.00,meteohub,2013-10-06 04:59:00,